Location: Easter Hill Village
(37.9235°N, 122.3444°W)
Time: 10:59:27
(UTC+00:00)

Cosmos 783 Rocket - Pass Details

Date: 16 September 2019
Orbit: 757 x 781 km, 74.1° (Epoch: 19 October)

Event Time Altitude Azimuth Distance (km) Brightness Sun altitude
Exits shadow 12:19:22 21° 202° (SSW) 1,672 5.9 -18.7°
Maximum altitude 12:22:57 82° 288° (WNW) 771 4.4 -18.0°
Drops below altitude 10° 12:28:10 10° 16° (NNE) 2,300 7.4 -17.0°
Sets 12:30:34 0° 18° (NNE) 3,233 8.2 -16.6°
